GFSCGP_sfc_thetae_000.txt.gz
Theta_e
308 303 301 302 303 302 301 299 298 302 305 302 302 303 305 308 309 309 310 311 312 316 320 321 323 325 325 326 325 327 326 326 324 323 319 317 315 317 318 318 318 317 318 317
302 300 304 305 304 302 301 299 299 302 304 302 303 302 305 307 308 309 309 311 314 315 315 318 320 324 326 325 324 323 322 320 318 317 317 317 317 316 316 317 316 317 316 315
301 302 305 303 303 301 301 299 300 299 303 304 302 300 302 306 307 308 310 311 312 312 313 315 317 319 321 320 319 317 316 315 316 317 315 314 314 313 312 312 312 313 314 313
303 305 303 303 302 302 298 303 301 300 298 294 302 292 300 303 304 306 307 309 309 310 312 313 315 316 317 317 318 316 316 315 314 315 313 312 310 309 312 314 312 312 312 311
301 303 303 302 301 303 301 304 301 301 299 298 299 296 299 303 300 303 306 308 309 311 312 312 313 315 316 317 318 317 315 314 314 313 312 311 312 311 311 310 309 309 309 308
304 307 306 304 305 304 306 304 303 302 300 294 297 297 295 299 301 303 306 308 310 310 312 312 314 315 315 317 317 316 314 313 314 313 313 311 308 308 307 307 305 304 304 304
303 303 306 306 303 307 304 301 294 293 294 292 299 295 298 303 304 305 305 307 310 312 312 312 312 312 313 315 315 315 314 312 313 311 310 309 309 308 306 304 302 301 301 301
297 295 302 305 302 299 301 299 295 286 289 292 298 291 296 304 306 306 307 307 309 310 312 311 312 313 313 315 315 315 313 311 312 312 310 310 309 305 304 303 301 300 300 301
297 296 304 304 305 303 301 296 300 295 295 291 293 298 302 304 303 304 305 306 307 309 310 311 312 313 313 313 314 314 313 312 312 312 310 307 306 305 304 302 302 301 302 301
299 296 301 302 305 305 302 302 295 297 287 284 290 292 293 299 301 302 303 304 306 309 310 311 311 312 313 313 313 315 312 310 309 306 305 303 303 305 303 303 301 301 301 300
302 300 297 302 300 298 300 299 298 296 294 287 286 289 300 300 301 301 303 305 307 308 309 310 310 310 311 311 311 311 309 307 306 305 303 304 303 303 302 301 300 299 298 298
301 299 297 296 302 303 301 299 298 293 290 294 292 289 303 303 304 304 304 305 307 308 308 308 308 308 308 308 308 307 307 306 305 304 304 302 302 301 300 299 298 297 296 297
303 300 294 294 299 302 298 300 298 298 294 289 288 290 304 303 304 304 303 305 306 306 306 307 307 306 306 305 305 304 305 306 305 304 302 301 300 298 297 297 296 296 295 295
304 299 295 291 293 297 294 296 297 296 292 291 292 293 298 301 301 302 303 305 305 305 305 305 305 304 303 303 302 303 302 305 304 303 301 300 299 296 295 295 294 294 294 292
303 297 297 296 296 296 295 295 295 294 295 290 293 293 297 300 301 302 303 304 304 303 303 303 303 302 301 301 301 301 301 303 303 302 300 300 298 296 296 295 294 293 292 291
303 297 294 293 297 296 293 295 295 295 295 295 295 295 302 303 303 302 302 302 302 301 301 301 301 300 299 299 298 298 298 299 303 300 299 300 299 297 295 294 293 292 290 289
298 296 293 290 294 292 290 294 296 296 298 297 292 297 302 300 301 301 301 302 300 299 299 299 299 298 297 296 296 296 296 298 299 298 299 299 296 294 295 294 292 290 288 288
293 294 294 289 289 285 296 300 300 297 298 299 299 300 301 300 301 302 302 299 298 298 298 298 297 297 297 297 296 295 295 295 295 296 297 297 296 294 294 293 291 290 288 287
303 299 288 287 287 291 294 298 296 295 294 300 300 300 301 300 300 299 300 300 298 298 298 297 297 296 296 295 295 294 294 294 294 294 295 295 295 293 292 291 290 288 287 287
300 298 296 288 284 282 296 300 303 301 290 302 301 299 298 298 291 294 299 299 298 297 296 296 296 295 294 294 294 293 292 292 292 294 294 293 293 293 291 291 289 288 287 287
289 292 289 288 286 290 298 301 302 289 292 302 301 299 298 295 297 299 300 297 296 296 296 296 295 293 293 293 293 291 291 290 294 294 294 293 293 291 291 290 288 287 286 285
290 289 286 289 286 284 302 300 293 300 304 302 301 300 299 299 300 298 297 295 295 294 294 294 293 292 293 293 292 291 290 293 294 294 293 292 292 291 290 288 286 286 285 284
293 298 296 294 294 303 304 302 305 304 302 301 300 300 300 299 297 296 295 295 295 294 293 294 292 292 293 293 292 291 291 292 292 292 291 291 290 290 289 286 285 284 284 281
299 302 299 297 300 301 304 305 305 304 302 302 302 301 300 297 296 294 295 294 293 293 292 293 292 291 291 292 292 292 292 292 290 289 289 289 288 287 287 287 285 283 282 280
301 301 299 298 301 302 303 303 303 302 303 302 302 301 297 296 294 295 293 293 293 293 292 292 291 291 291 292 292 292 291 290 288 288 288 286 286 286 286 286 283 283 281 280
302 298 296 295 302 302 301 302 302 301 301 301 300 297 296 296 294 293 292 292 292 291 291 291 291 291 291 291 291 291 290 289 287 285 285 286 285 285 285 284 283 283 281 280

GFSCGP_sfc_thetae_003.txt.gz
Theta_e
303 297 292 295 297 298 297 294 294 295 300 297 296 296 299 302 301 302 306 309 309 310 313 317 317 316 316 319 318 317 316 312 313 311 310 309 307 308 308 309 311 311 310 310
297 294 299 302 301 299 297 296 295 297 300 296 294 294 299 303 302 303 306 306 307 309 312 313 313 312 312 312 311 311 311 310 310 310 309 308 307 308 307 308 309 310 310 309
296 298 303 302 300 298 297 296 295 295 298 297 295 293 297 301 304 305 305 305 306 307 308 311 311 309 309 308 308 308 308 308 309 309 307 306 305 305 306 308 308 309 309 307
298 303 302 300 299 298 295 301 299 297 293 288 294 285 294 299 300 302 303 303 304 306 309 310 309 307 308 307 307 307 308 307 308 307 305 304 304 304 306 306 305 306 305 305
298 299 300 299 299 301 298 302 299 297 293 291 293 289 294 300 297 299 300 302 303 304 306 306 307 308 308 307 306 306 306 307 307 305 304 305 303 303 304 304 301 300 301 302
299 303 301 300 303 302 302 300 299 297 294 284 293 292 293 296 298 300 303 304 304 304 305 307 308 309 307 306 306 305 305 305 306 305 304 304 301 301 301 298 297 298 298 300
299 300 301 303 299 302 299 295 285 284 282 282 297 293 293 298 301 302 302 302 304 305 304 305 306 305 305 304 305 305 306 306 305 304 303 302 301 299 297 296 295 296 297 297
293 289 298 302 299 295 297 295 284 281 278 285 292 289 291 300 301 302 303 303 304 304 304 304 305 304 305 306 306 306 306 306 307 304 302 301 300 299 298 298 298 298 297 296
294 293 300 301 301 300 298 289 295 288 285 282 288 293 297 300 300 301 301 302 302 302 303 304 307 308 308 308 306 306 306 305 302 301 300 300 302 301 300 299 297 296 297 299
297 291 298 300 302 302 298 298 289 287 280 278 285 290 290 297 298 300 298 299 300 302 304 304 305 305 304 304 305 304 303 302 301 299 301 303 302 302 301 297 296 296 295 296
298 296 294 299 296 294 296 294 294 292 286 279 277 284 296 296 298 298 299 300 300 301 301 302 302 303 303 303 302 302 302 302 300 301 302 301 300 298 297 296 294 294 294 294
298 294 284 293 299 300 297 296 295 282 285 283 280 283 298 298 299 299 300 301 301 301 301 301 302 301 300 299 299 299 300 300 300 300 299 298 298 297 295 294 293 293 292 293
299 291 283 289 295 298 295 297 298 294 285 282 277 283 300 301 301 302 299 300 300 301 301 301 300 300 298 298 298 298 298 299 300 300 298 297 298 295 292 291 292 291 291 290
301 296 287 282 288 292 289 293 295 293 282 284 284 289 294 298 298 298 299 299 299 299 300 299 299 298 297 296 296 295 295 296 298 300 299 298 298 296 292 293 292 291 290 288
299 289 292 293 293 294 293 292 292 290 290 284 288 291 295 296 297 298 299 300 299 298 298 297 297 295 294 293 292 292 292 294 294 296 297 297 297 294 294 293 292 292 290 288
300 287 285 285 294 293 290 292 292 292 292 292 292 292 298 298 298 298 298 298 296 296 296 296 297 295 293 291 291 292 291 291 293 292 292 295 295 294 294 294 293 291 288 286
290 284 283 282 290 287 281 288 294 294 294 293 285 293 297 295 296 296 295 295 295 295 295 295 295 292 292 291 291 289 290 291 291 291 293 295 294 293 294 294 292 288 286 284
287 287 283 278 281 274 292 298 297 294 295 297 297 296 296 295 296 295 295 294 294 295 295 295 292 291 290 289 289 289 289 290 290 290 292 293 292 292 294 294 289 287 285 283
297 285 279 279 277 284 291 295 293 290 290 298 296 296 296 296 296 293 296 296 294 294 294 291 290 290 288 288 288 288 288 288 289 291 291 291 291 291 291 290 288 287 284 282
295 286 283 277 275 272 287 297 300 298 283 298 297 295 294 293 282 289 296 296 294 292 292 290 290 288 287 288 288 288 287 287 289 291 291 291 290 290 290 290 288 284 283 283
281 280 277 281 273 282 294 298 300 283 285 298 297 295 294 290 289 294 297 294 292 292 291 291 289 287 287 288 288 287 287 287 290 291 291 291 291 290 289 288 285 283 281 282
283 280 283 281 278 276 298 297 288 292 297 297 297 296 296 295 296 297 293 292 292 290 290 290 288 287 288 289 288 287 286 288 290 289 289 289 289 289 288 284 283 282 280 280
285 289 285 286 285 294 299 297 301 301 298 297 295 297 296 296 296 292 292 291 291 289 288 289 287 288 288 288 288 287 287 288 288 287 286 286 287 287 286 284 282 280 279 276
294 299 287 288 296 297 299 302 302 301 299 299 299 299 298 296 292 291 291 289 288 287 286 287 287 287 287 288 289 288 288 288 287 285 285 285 284 284 284 284 281 279 274 274
292 297 293 290 296 298 299 300 301 300 301 301 302 301 300 293 291 289 288 287 287 286 287 287 286 287 288 288 288 288 288 287 286 285 285 283 282 282 282 282 280 279 278 278
298 294 288 286 298 297 297 300 301 299 299 301 300 295 293 290 288 288 286 286 286 286 287 287 288 288 288 288 287 288 288 286 283 283 281 280 280 279 281 281 279 283 282 282

GFSCGP_sfc_thetae_006.txt.gz
Theta_e
301 295 291 293 295 296 296 293 291 292 297 295 294 294 296 301 305 304 305 308 308 307 309 311 312 312 312 311 312 311 312 314 310 309 309 309 305 306 306 306 309 309 309 309
296 292 297 300 300 298 297 294 293 296 299 295 294 293 297 302 302 304 305 306 306 307 307 308 309 309 308 307 310 310 309 308 309 310 309 307 305 305 306 311 309 308 307 306
294 296 301 300 297 297 296 294 293 293 295 295 296 292 296 300 301 302 302 305 307 307 306 307 307 305 304 304 305 306 305 306 307 307 305 305 305 306 306 305 304 304 303 303
296 301 300 298 297 296 293 299 297 295 291 286 292 284 292 296 298 301 303 303 305 306 307 307 305 304 304 303 303 304 305 305 305 305 304 304 303 302 303 302 300 299 300 301
296 298 297 296 297 298 296 299 296 295 290 289 290 287 290 297 295 297 298 302 303 304 305 305 305 305 305 304 303 303 305 305 304 303 303 303 301 300 301 299 297 297 298 299
298 301 298 297 300 300 300 298 297 295 292 283 291 289 290 292 296 298 299 301 302 302 303 305 306 306 305 304 303 302 303 304 304 303 302 303 300 299 297 295 294 295 297 297
297 297 300 301 297 300 297 293 283 283 280 281 294 290 291 298 300 301 300 300 301 302 303 304 304 304 304 304 304 303 304 304 304 303 300 299 298 296 295 295 297 297 298 297
290 287 296 300 296 293 295 293 283 280 278 283 292 286 289 299 303 303 304 302 302 302 303 303 303 302 302 304 303 303 302 299 300 299 298 299 298 299 299 299 295 297 297 296
291 291 298 298 298 298 295 287 294 286 283 281 286 290 295 299 299 301 301 303 300 300 300 301 302 302 303 303 301 303 302 300 299 299 299 299 301 301 300 301 298 297 295 296
295 289 296 298 301 300 294 296 288 285 278 277 283 287 288 294 295 297 296 297 299 300 300 301 301 301 301 301 303 304 302 300 298 299 300 302 301 300 299 296 294 293 293 294
297 292 291 298 294 292 294 292 292 290 284 278 276 282 293 296 296 296 296 298 298 298 299 299 299 299 299 299 298 299 298 300 298 298 298 297 297 296 296 294 294 293 293 294
296 290 282 291 297 298 295 293 292 281 284 281 278 282 295 296 297 299 299 299 299 299 299 299 298 297 296 296 296 295 296 297 297 298 298 297 297 296 294 293 292 292 292 292
296 288 281 288 294 296 293 295 296 290 283 282 276 280 297 298 297 298 296 298 298 298 297 297 296 295 295 294 293 291 291 291 292 294 295 296 297 296 292 292 291 291 290 291
300 293 286 283 287 290 286 291 294 290 280 282 282 287 292 294 295 296 296 296 295 296 296 295 295 294 292 291 290 290 290 290 290 290 291 291 292 295 291 290 291 293 293 293
296 287 289 290 292 291 290 289 289 289 289 283 287 288 293 294 295 296 297 296 296 295 295 295 294 292 289 289 289 289 289 290 290 290 289 291 293 292 292 293 293 293 293 293
296 285 284 284 292 292 287 290 290 290 290 289 291 290 295 295 296 295 295 294 294 295 294 294 294 290 290 289 288 288 289 289 290 289 290 293 293 293 292 292 292 291 291 287
288 283 281 281 286 285 280 287 291 291 293 291 284 291 294 293 294 293 292 293 293 293 293 293 292 290 289 287 288 287 288 289 289 289 291 291 293 292 291 292 291 291 287 288
286 285 280 276 278 272 290 295 295 293 294 294 293 293 293 294 294 293 293 292 293 293 293 292 289 288 287 287 287 287 288 287 288 289 290 290 290 290 290 290 289 289 287 285
292 281 279 275 276 281 288 293 292 289 290 296 294 294 294 294 292 291 294 294 293 293 291 290 289 288 286 286 287 287 287 287 287 289 289 289 289 289 288 289 288 288 285 281
292 284 281 279 272 271 284 295 298 295 283 296 295 294 293 292 281 287 295 295 293 291 290 289 288 287 286 287 287 286 286 286 286 289 289 289 289 289 288 287 286 285 282 282
279 277 276 276 270 279 289 295 297 282 284 296 295 294 293 289 289 292 295 294 291 290 289 289 287 286 286 287 287 286 286 285 287 289 289 289 288 287 287 286 283 282 281 281
282 279 277 276 272 276 294 295 287 291 294 296 295 295 294 293 294 295 294 290 289 287 287 287 286 286 286 287 287 285 285 287 287 287 287 286 286 286 286 283 282 282 281 278
284 286 283 286 285 292 295 295 297 298 296 296 295 296 295 294 294 292 289 288 286 285 285 286 285 285 286 287 287 285 286 287 287 285 285 284 284 284 284 281 279 279 277 274
292 296 286 288 294 295 297 299 300 300 298 297 297 297 298 294 291 288 287 286 285 284 284 285 285 285 285 286 287 286 287 287 285 284 284 283 282 283 282 281 280 278 273 272
289 295 291 288 293 296 298 298 299 299 299 298 300 298 298 290 287 286 285 285 285 284 285 285 285 285 285 286 287 287 287 286 284 284 284 282 280 281 281 279 279 279 279 277
295 292 287 288 294 295 295 299 299 298 298 300 299 290 290 289 286 286 285 285 285 284 285 284 285 285 285 286 285 286 286 285 284 283 282 280 278 277 280 280 280 283 283 282

GFSCGP_sfc_thetae_009.txt.gz
Theta_e
298 294 289 291 293 294 293 290 289 289 295 294 292 293 297 301 303 303 303 303 304 305 306 308 308 310 310 311 312 313 315 316 312 309 309 309 304 305 306 307 308 307 306 305
295 291 295 299 298 296 295 291 290 293 296 295 295 293 297 300 301 303 303 302 303 304 305 306 307 307 307 309 310 310 309 309 309 310 308 307 306 305 309 308 305 304 303 301
292 294 299 298 296 296 294 291 291 292 294 295 295 292 293 298 300 303 303 304 303 304 304 305 305 302 303 304 305 305 305 306 307 309 307 304 304 304 303 301 300 299 301 300
295 300 298 296 295 295 291 296 295 293 290 287 291 283 291 294 297 300 301 302 303 304 305 304 302 301 301 300 301 302 303 303 304 304 303 302 301 301 301 299 296 296 299 298
294 296 296 295 294 297 295 297 294 293 288 287 288 285 288 295 294 297 299 303 304 304 303 303 303 303 302 302 301 301 303 303 303 302 302 302 300 298 298 295 295 295 297 297
296 299 297 295 298 298 298 296 295 293 290 282 289 287 287 290 294 296 299 302 304 302 302 303 304 304 302 301 301 300 301 302 302 301 300 300 297 296 294 293 294 294 295 296
295 295 297 299 296 298 296 291 282 282 280 280 291 288 289 295 297 298 299 299 301 301 302 304 304 302 301 300 300 302 301 299 298 298 297 297 295 294 295 297 298 297 297 297
289 286 294 298 295 292 292 291 283 280 277 282 290 285 289 297 300 301 301 300 300 303 303 301 300 300 299 299 297 297 297 297 298 298 297 297 298 297 299 300 299 297 295 295
289 289 296 296 297 297 293 287 292 284 282 281 284 288 294 296 298 299 300 300 298 298 298 299 300 299 299 299 299 298 297 297 298 299 298 298 298 298 298 298 296 294 293 295
294 287 294 296 298 297 294 296 286 284 277 276 282 284 285 291 294 296 295 296 297 297 298 298 298 298 297 298 298 299 299 298 297 297 297 298 298 297 297 296 294 293 292 295
295 290 290 295 292 290 292 290 289 288 282 277 275 282 291 293 294 294 294 296 296 296 297 298 297 298 296 295 295 294 296 295 293 293 295 295 295 295 295 293 292 292 292 294
295 289 282 289 295 296 293 291 289 280 282 279 277 281 293 295 296 296 296 296 296 297 297 297 296 296 295 292 291 291 290 290 291 292 292 293 293 293 292 292 291 292 292 290
294 287 281 287 292 294 291 293 292 287 283 282 275 279 295 295 295 296 295 296 296 295 295 295 294 294 291 290 290 289 289 288 289 289 289 289 290 291 292 291 290 291 290 291
298 291 285 282 286 288 285 289 291 288 279 281 281 284 291 292 293 294 294 294 294 294 294 294 293 292 291 290 289 288 288 288 288 288 288 290 291 291 289 288 289 290 291 291
294 286 288 288 290 289 288 288 289 288 287 283 286 286 291 293 293 294 294 294 294 293 294 294 292 291 289 288 288 287 288 288 289 288 288 290 291 291 290 290 290 290 290 291
292 284 283 284 290 289 286 288 288 288 288 288 288 288 294 294 295 294 294 293 292 293 295 294 294 291 289 287 286 287 287 288 288 287 289 290 290 291 291 291 290 292 291 290
286 282 280 278 284 284 278 285 289 289 291 289 285 290 293 292 294 292 292 292 292 293 293 292 292 289 288 287 287 286 287 287 287 287 289 290 289 290 289 289 290 289 288 286
285 282 277 275 276 272 286 291 293 291 292 292 291 292 293 294 293 293 293 292 292 292 292 292 290 288 287 286 286 286 286 286 286 287 288 289 288 288 288 288 288 287 287 286
290 280 279 274 275 280 286 291 291 289 289 294 291 292 292 293 291 290 293 293 292 292 292 290 288 287 286 285 286 285 285 285 286 286 287 288 288 287 287 286 286 286 285 282
288 282 279 277 271 271 282 292 296 293 283 295 294 292 291 290 282 288 293 293 293 293 289 288 286 285 285 285 285 284 285 285 285 286 287 288 287 287 286 285 284 284 280 281
279 275 274 273 270 279 287 294 295 283 283 295 295 294 291 290 290 291 294 295 291 288 286 286 286 285 285 285 286 285 285 284 286 287 287 286 286 284 284 283 282 281 281 281
283 279 275 278 272 276 292 293 287 291 292 296 295 294 293 293 293 294 295 289 286 285 285 285 285 284 285 286 285 284 283 285 286 286 285 285 284 284 284 281 280 280 279 278
282 285 282 284 284 291 293 294 295 296 295 295 295 295 295 295 294 294 287 285 285 284 283 284 284 285 285 285 285 283 284 286 285 285 284 283 283 283 282 280 278 278 277 274
290 293 285 287 292 293 294 296 299 298 297 297 297 296 296 295 292 287 285 285 284 283 283 284 284 283 283 285 285 285 285 286 285 284 284 284 283 282 281 280 280 278 274 274
289 293 290 287 292 294 297 298 299 299 298 297 298 297 297 292 286 287 286 284 284 283 284 284 283 283 283 284 285 284 284 284 283 283 285 283 282 281 280 280 279 278 279 279
293 291 285 285 293 294 293 298 299 297 297 298 296 292 289 289 287 286 284 284 284 283 283 282 283 283 283 284 283 283 284 284 283 284 284 283 283 280 280 279 278 283 283 283

GFSCGP_sfc_thetae_015.txt.gz
Theta_e
301 298 295 297 296 294 294 293 292 294 297 299 297 298 300 304 305 305 307 308 309 309 312 317 319 322 323 323 324 324 322 319 317 315 316 316 317 314 311 310 310 309 309 308
299 295 298 300 299 297 296 294 293 296 299 299 298 298 301 303 303 304 306 307 309 310 311 314 317 320 322 322 321 321 319 317 318 319 318 318 315 313 309 307 307 307 307 307
297 298 300 299 297 297 296 295 293 294 298 299 299 296 299 302 304 305 306 307 309 310 311 312 314 318 319 320 318 315 315 315 315 315 313 312 313 311 309 306 305 305 306 306
299 300 298 297 296 297 294 298 297 296 295 292 295 290 296 300 302 304 305 307 308 309 310 310 309 309 310 309 311 312 311 310 309 310 311 310 309 309 306 304 305 306 306 307
297 298 297 297 297 300 296 298 297 294 293 293 293 293 293 300 299 302 304 305 306 307 307 306 305 306 306 308 309 309 308 308 308 309 310 309 307 305 305 305 305 305 305 305
298 301 300 299 299 299 300 298 297 295 294 289 291 292 292 296 300 302 304 305 305 305 306 306 307 307 306 307 307 307 306 306 307 308 308 308 306 304 305 305 305 305 305 306
297 297 299 301 299 300 299 296 289 288 288 287 292 290 294 298 301 305 304 305 306 307 306 306 306 306 306 306 306 305 305 303 304 304 304 304 303 303 303 304 304 304 304 305
291 289 296 299 298 297 295 296 290 282 284 288 292 289 295 299 302 306 307 307 306 306 306 306 305 304 303 303 304 304 304 303 304 304 304 305 305 304 302 301 301 300 301 302
292 291 298 298 300 300 295 292 295 288 285 286 289 293 297 298 299 302 303 304 305 305 305 304 303 303 302 303 303 304 302 300 299 301 301 300 299 299 298 299 300 299 301 300
296 291 296 298 300 299 297 297 291 290 282 280 285 287 291 295 297 300 301 303 304 304 303 303 302 302 303 304 303 302 299 297 297 298 298 297 297 298 298 298 297 297 299 300
296 295 293 296 295 294 295 293 290 291 287 283 281 287 296 298 300 300 303 303 303 303 302 301 300 301 301 302 300 297 295 296 296 296 296 297 297 297 297 297 297 297 298 299
297 294 290 292 297 299 297 294 292 288 284 284 285 288 295 298 300 301 301 301 302 302 301 299 299 298 298 297 296 293 296 296 296 295 295 295 296 297 296 296 296 297 296 297
297 292 288 290 293 296 295 294 291 289 288 285 287 288 296 297 297 300 301 300 299 300 299 298 298 295 294 293 294 295 295 294 294 293 294 295 295 295 296 296 296 296 296 295
299 291 290 287 289 292 290 293 291 291 287 286 288 290 293 296 296 297 298 299 299 298 298 298 297 296 293 294 295 293 295 294 293 293 293 294 295 295 295 295 296 295 296 296
296 290 290 290 290 291 290 291 291 290 290 289 290 288 293 297 298 298 298 298 297 296 297 297 296 295 294 293 293 295 294 293 294 293 293 293 295 295 295 295 295 295 295 295
293 288 288 288 289 289 289 290 290 291 291 290 290 291 296 297 298 297 297 296 296 296 297 297 297 295 292 294 295 294 293 293 293 292 292 293 293 294 294 294 293 293 294 294
289 286 285 283 285 285 284 288 290 290 291 293 289 295 296 295 295 297 297 297 296 297 297 297 296 297 296 295 294 293 292 292 291 291 291 292 292 292 293 293 292 292 292 292
286 284 282 284 281 280 290 293 292 291 292 293 293 294 296 296 297 298 299 298 297 297 297 297 297 297 297 294 292 292 290 290 290 290 290 291 291 291 292 291 291 291 291 291
289 286 281 284 281 284 289 289 292 291 292 296 294 295 295 295 297 298 299 299 300 299 298 297 297 296 292 291 290 289 289 289 289 289 290 290 290 291 291 290 289 289 289 289
289 286 287 280 282 280 288 290 297 296 289 296 297 295 294 296 294 298 299 299 298 298 297 295 291 290 290 289 290 289 288 288 288 289 289 290 291 290 290 289 289 289 289 286
285 283 283 277 283 284 290 294 297 288 290 295 297 297 295 296 300 299 298 297 298 295 290 288 289 289 289 289 289 288 288 288 289 289 289 290 290 289 290 289 289 288 287 286
286 284 282 278 280 282 292 295 292 297 297 297 298 298 297 299 296 296 296 294 291 288 288 289 288 288 288 288 288 287 287 288 288 288 288 289 289 288 288 288 288 286 286 285
287 289 288 287 288 294 294 297 298 298 297 298 298 299 299 296 295 296 292 289 288 287 287 288 288 287 287 288 288 287 288 288 287 287 288 288 288 288 288 287 287 285 284 284
291 291 289 290 293 292 294 297 297 299 300 300 300 301 299 298 296 293 288 287 287 287 287 287 286 286 286 287 287 287 287 287 286 286 287 288 287 286 288 287 286 285 284 284
292 292 290 289 293 294 296 298 300 300 300 300 301 300 299 299 296 291 288 285 285 285 286 286 286 286 286 286 287 287 287 286 286 286 286 286 286 285 285 287 286 284 285 285
293 293 291 291 297 296 297 298 300 300 300 301 300 298 297 296 291 288 286 287 286 287 286 286 286 286 286 286 286 286 286 286 286 285 287 286 286 285 286 286 285 284 284 283

GFSCGP_sfc_thetae_018.txt.gz
Theta_e
306 301 298 301 302 300 300 298 297 300 304 304 302 303 304 309 313 314 316 317 318 319 321 325 327 329 331 332 333 332 330 330 329 326 323 321 321 321 319 317 316 315 314 314
302 299 302 304 302 301 300 298 298 300 303 304 304 303 306 307 310 313 315 316 317 318 321 323 327 329 330 330 331 331 329 328 326 325 325 325 323 319 316 316 314 313 312 312
301 302 303 303 302 300 300 299 299 299 302 304 304 301 304 306 308 310 313 316 317 319 320 322 325 328 329 328 329 328 326 324 324 323 322 320 320 317 316 315 314 312 312 311
302 304 302 303 300 302 298 301 302 300 299 295 303 294 302 305 306 309 311 314 316 319 322 323 322 322 325 325 323 322 322 321 318 316 317 317 316 315 313 312 312 313 312 312
300 301 301 301 300 303 300 303 303 301 301 299 299 296 301 305 304 308 311 314 317 320 318 316 317 319 319 319 319 318 316 315 316 317 317 315 313 311 312 312 310 311 311 311
303 306 305 303 304 304 305 303 302 301 300 293 297 297 297 302 305 308 312 313 315 315 314 313 314 314 314 315 316 316 314 314 314 314 313 312 310 308 308 307 306 305 305 305
301 301 304 306 302 305 304 301 293 291 292 290 297 295 298 304 307 310 311 311 313 313 312 311 310 311 312 313 314 313 312 311 311 310 309 308 308 307 303 302 301 300 300 300
296 294 300 304 303 300 301 300 294 284 287 291 296 292 299 304 308 312 313 312 312 312 312 311 312 312 312 312 312 312 310 308 308 307 306 305 302 300 301 301 300 300 299 300
296 295 302 303 304 304 299 297 301 294 292 292 294 298 303 304 305 309 311 310 310 311 311 312 312 312 311 311 311 310 307 305 304 302 301 301 301 301 301 301 301 300 300 299
302 295 300 302 304 304 302 303 295 297 286 284 291 293 295 300 302 306 309 309 310 311 312 312 310 310 311 311 310 308 305 302 300 300 301 301 301 301 301 301 299 299 299 299
303 300 297 301 300 299 299 298 296 297 294 287 285 292 302 302 305 306 308 310 311 311 311 311 310 310 310 309 306 303 302 299 298 301 301 301 301 301 300 300 299 298 299 299
303 301 296 298 301 303 302 300 298 292 289 293 292 291 302 304 305 308 309 310 312 312 312 311 308 308 308 306 303 302 301 299 301 300 299 299 300 300 299 299 298 299 298 298
303 299 294 294 298 301 299 300 299 297 296 290 291 292 302 304 304 307 308 310 310 311 310 308 307 305 305 303 301 300 300 300 300 299 298 299 299 298 298 298 298 298 297 297
302 300 297 293 295 299 296 298 299 298 292 292 293 294 298 301 303 305 307 309 309 309 308 306 305 304 303 301 299 298 300 302 301 299 298 297 298 298 298 298 297 297 297 297
303 297 297 296 296 296 296 297 297 295 296 292 294 294 297 301 302 305 307 307 307 306 305 305 305 303 301 299 298 300 303 303 300 298 298 298 298 298 298 298 297 297 297 296
300 297 295 293 295 294 293 296 297 298 298 297 297 296 303 304 304 305 305 305 304 304 304 305 305 304 301 300 298 302 302 300 299 297 297 298 297 297 297 297 296 296 295 295
298 295 292 289 291 292 290 294 296 297 299 298 294 300 303 301 302 304 305 305 304 305 305 304 305 304 302 299 302 301 300 299 297 296 296 296 296 295 295 295 295 295 294 295
294 293 292 291 287 285 294 298 297 297 298 300 299 300 301 302 304 305 307 306 305 305 305 306 306 303 303 301 301 301 298 296 296 295 294 295 294 294 294 295 294 294 294 293
297 295 289 290 288 291 293 294 294 294 295 301 300 301 301 302 303 305 306 307 308 307 307 307 306 303 300 299 298 296 295 295 294 293 292 293 293 293 293 293 293 294 293 293
295 295 296 289 289 287 294 296 301 300 292 300 301 302 302 302 299 302 308 307 307 308 308 305 302 299 297 296 294 294 294 293 291 291 292 292 292 293 292 292 293 294 293 291
292 292 291 290 290 292 296 297 302 290 293 302 303 304 303 302 305 306 307 307 308 307 305 302 298 296 295 294 294 292 291 290 292 292 292 292 292 292 292 293 293 293 292 291
293 292 290 288 288 287 297 300 295 302 304 303 304 306 305 307 305 303 304 306 305 303 299 297 295 293 292 292 292 290 290 292 291 291 291 291 292 292 292 292 292 292 291 289
292 297 297 294 296 299 301 303 305 304 303 304 305 306 306 305 305 303 302 301 299 296 295 293 291 290 291 291 291 289 290 291 291 291 291 291 292 291 291 291 291 291 290 289
297 298 297 294 299 299 301 303 303 304 304 305 306 306 306 305 306 304 301 297 294 294 290 291 288 291 290 290 289 291 291 291 290 289 290 291 289 288 288 289 289 290 289 288
299 298 297 296 300 301 302 303 304 304 306 306 307 307 307 306 305 303 298 295 292 287 290 290 289 289 288 289 290 291 290 290 289 289 289 289 289 288 287 287 287 289 290 288
299 298 297 297 302 301 302 304 305 304 305 306 306 306 303 304 303 300 293 290 291 291 289 287 288 288 289 288 289 289 289 288 288 288 289 290 289 288 288 287 287 286 285 284

GFSCGP_sfc_thetae_021.txt.gz
Theta_e
308 301 298 301 303 302 301 299 298 301 304 302 301 303 306 311 313 314 315 318 320 321 325 327 329 330 330 334 335 332 331 331 329 329 328 327 322 323 322 320 319 318 317 316
303 299 304 304 303 301 300 298 299 301 304 304 302 302 306 309 311 314 315 316 318 320 323 325 328 330 331 332 334 332 331 331 331 330 327 325 325 322 319 318 318 316 316 315
300 302 306 303 302 300 300 298 299 299 303 305 304 301 305 309 312 314 316 318 319 320 321 324 327 329 331 330 330 329 330 330 328 328 325 324 322 319 317 317 316 315 315 315
301 306 304 301 300 302 298 304 302 301 300 295 304 293 302 307 308 310 313 316 319 320 323 325 326 328 329 330 332 330 328 326 325 323 320 319 318 316 316 315 315 315 315 313
301 303 303 300 302 305 301 305 304 303 301 300 300 296 296 307 305 308 311 314 317 320 323 324 326 326 327 326 325 325 323 319 319 320 320 318 316 315 314 314 311 310 309 308
302 309 307 306 306 306 306 304 303 303 300 293 297 296 297 303 306 309 312 315 318 321 322 320 321 321 321 321 321 319 317 317 318 318 317 315 312 310 308 306 304 303 303 303
303 303 306 307 303 306 305 301 293 291 292 291 299 297 299 304 309 310 312 315 319 320 317 316 315 315 316 317 317 317 316 314 315 313 311 310 309 305 304 302 301 301 301 301
296 295 303 307 305 301 302 301 294 286 288 292 300 293 298 308 309 311 315 316 318 317 315 314 314 314 315 316 316 315 314 312 311 310 307 305 303 302 302 302 302 301 300 300
297 296 305 305 306 305 301 298 303 297 297 292 294 298 305 307 307 310 313 314 315 314 313 313 314 315 315 315 315 315 313 310 308 306 306 303 302 303 303 302 303 301 301 300
302 296 302 304 306 306 304 305 296 296 287 286 292 294 297 302 304 308 311 313 314 314 313 314 314 315 315 315 315 315 311 307 306 305 304 301 303 303 304 303 301 300 300 300
304 300 300 303 301 300 301 299 299 299 298 290 287 293 303 301 305 307 310 313 314 314 314 314 314 314 314 315 313 310 307 306 305 303 302 304 302 302 303 302 301 300 300 299
305 301 297 299 305 306 305 302 302 294 292 295 294 292 304 305 307 309 310 313 314 315 315 315 314 313 313 312 310 307 307 307 303 303 301 302 302 302 301 301 301 300 299 299
307 299 294 296 301 304 300 302 302 300 299 293 291 293 305 305 305 307 309 312 313 314 315 315 314 312 312 311 308 306 306 305 303 301 301 301 301 301 301 300 300 299 299 298
304 302 298 293 297 301 299 300 301 300 294 294 295 296 300 302 303 305 307 310 313 313 314 315 314 312 311 311 308 306 305 306 303 302 301 300 301 301 301 300 299 299 298 297
306 298 301 301 300 300 299 298 300 298 298 295 297 296 299 302 303 305 307 309 309 311 313 313 312 311 310 309 307 305 305 306 303 301 300 300 301 301 300 299 299 299 298 297
306 299 299 297 300 299 297 299 299 299 299 298 298 298 304 305 306 305 306 307 307 309 311 312 311 310 309 307 305 303 305 304 304 301 299 300 300 299 299 298 298 297 297 296
303 301 296 291 295 295 291 297 298 299 300 300 296 301 304 303 303 304 305 307 307 309 310 311 310 310 309 307 305 303 305 304 301 300 299 299 298 298 297 296 295 295 296 296
301 299 297 292 289 284 296 301 299 298 300 302 301 302 303 303 306 307 308 308 308 309 310 310 311 310 310 309 305 305 303 301 299 298 297 297 297 295 295 294 295 295 296 295
302 300 293 292 290 294 296 297 296 295 296 302 301 302 303 305 306 306 309 309 309 310 311 311 312 311 311 306 305 302 300 299 297 296 296 295 294 293 293 293 294 294 295 294
298 300 297 292 289 286 296 299 303 302 293 301 302 302 302 304 299 302 308 308 309 310 311 311 312 311 309 305 303 299 297 297 296 295 294 293 293 293 292 293 293 294 294 293
295 296 293 293 291 294 299 300 303 291 295 304 304 304 304 302 304 309 310 308 310 310 311 311 310 306 304 299 297 296 294 293 293 293 293 292 293 293 293 293 293 293 293 293
295 294 293 294 289 287 301 301 295 303 305 305 306 306 306 308 308 309 309 308 309 309 309 307 303 300 297 296 296 295 293 293 292 292 292 292 293 293 293 293 293 293 293 292
295 300 299 297 298 303 303 302 305 306 305 305 305 306 307 307 307 308 307 307 307 307 303 301 298 293 293 294 292 291 291 292 292 291 291 292 293 293 292 291 290 291 291 290
301 302 299 297 300 301 303 305 305 306 306 307 308 308 308 307 308 308 308 304 303 300 296 295 294 293 289 292 291 292 292 292 291 290 290 291 290 289 290 291 290 289 290 290
303 302 299 299 302 302 303 306 306 307 308 308 309 309 309 308 308 308 305 301 298 294 294 292 289 289 290 291 291 291 291 291 289 289 290 290 290 290 290 290 289 289 291 289
303 300 299 298 304 303 304 307 308 307 306 306 307 307 304 305 305 303 296 293 293 290 289 288 289 289 289 290 290 291 291 289 289 288 289 290 290 290 290 289 288 288 287 287

GFSCGP_sfc_thetae_024.txt.gz
Theta_e
308 302 298 301 302 302 300 299 297 300 304 302 301 301 303 308 310 312 314 316 317 318 322 324 327 328 327 332 333 333 329 329 329 327 325 325 323 322 322 318 319 317 316 315
303 298 303 305 304 302 300 298 297 300 303 302 300 300 304 307 309 312 313 315 317 318 321 324 326 329 331 332 333 331 330 329 329 328 327 325 322 321 318 317 316 315 315 313
300 301 306 304 302 299 299 299 298 298 300 301 301 297 301 305 309 311 314 315 317 318 320 323 325 328 331 330 331 330 329 329 330 328 325 321 318 316 314 314 313 313 314 313
302 306 303 302 300 301 297 304 302 300 298 293 302 291 297 303 305 308 311 313 315 317 321 323 325 326 328 328 328 330 329 329 326 326 322 318 315 312 314 313 313 313 313 311
301 301 301 300 301 304 299 304 303 302 298 298 297 293 298 303 302 306 311 314 317 318 320 322 324 326 326 329 329 329 327 323 322 320 320 317 314 314 313 311 308 307 306 305
303 307 306 304 305 306 306 303 303 301 299 290 295 294 295 299 302 301 310 313 316 318 321 323 326 326 325 326 324 323 318 317 319 318 317 314 310 308 305 303 302 302 301 301
301 301 306 307 301 305 302 299 292 289 289 290 299 296 297 303 305 306 308 312 315 319 321 321 321 320 319 319 318 317 315 315 315 314 311 309 306 305 302 300 301 300 299 299
294 293 302 305 302 299 300 298 294 283 283 291 299 293 297 307 309 310 314 315 318 319 319 318 318 317 316 316 316 315 314 313 311 310 307 305 304 302 302 303 300 299 298 298
295 295 305 305 306 304 300 296 302 295 298 293 293 296 302 306 306 308 313 315 316 317 316 315 315 315 314 315 315 315 313 311 309 306 305 304 303 302 302 302 301 300 299 298
300 291 303 304 305 305 302 303 296 296 287 285 290 293 295 302 303 306 310 312 315 316 314 313 313 314 315 315 315 316 314 309 306 306 305 303 302 304 303 302 300 298 298 298
303 300 299 303 300 297 300 298 298 297 298 291 288 291 302 301 304 306 309 313 314 315 313 313 313 314 315 315 314 314 311 306 305 305 304 302 303 303 302 301 300 298 298 298
304 301 297 297 304 306 303 301 300 296 292 297 294 292 305 304 305 308 309 311 314 315 314 313 314 314 314 313 313 311 308 305 306 304 302 302 303 302 301 300 299 299 297 298
306 299 293 294 300 304 300 301 300 301 301 294 291 293 305 304 304 306 308 310 313 314 314 314 314 313 312 312 312 309 306 306 305 303 302 301 302 301 301 299 299 299 297 297
308 301 296 292 295 301 299 300 300 299 295 295 293 295 300 302 303 304 306 308 311 313 314 314 313 313 312 312 310 308 306 307 304 303 302 299 301 301 300 299 299 298 298 296
305 297 299 299 300 300 300 299 299 297 298 293 297 296 300 302 303 305 307 308 308 308 312 313 314 312 312 311 311 308 306 306 305 303 300 300 301 300 299 300 299 298 297 296
306 299 301 298 300 300 297 299 299 298 298 298 298 297 304 305 306 305 305 305 307 307 308 312 314 314 312 311 310 308 305 305 306 302 300 301 301 299 299 299 297 297 296 295
305 303 297 292 296 294 289 296 297 298 300 299 294 301 304 302 303 305 306 306 306 307 308 310 312 313 313 311 310 306 304 306 304 300 300 300 299 298 297 296 295 294 294 295
303 301 298 294 290 285 295 301 300 298 298 300 299 301 302 303 305 306 306 306 307 309 309 310 311 312 312 312 308 306 304 304 301 299 298 298 298 296 295 294 293 294 294 293
305 302 295 290 290 293 295 298 297 296 296 301 299 300 301 303 304 305 308 309 308 308 308 309 311 312 311 310 307 304 303 300 298 297 296 296 295 293 293 292 292 293 292 292
300 303 299 293 290 286 297 300 303 301 292 302 302 302 302 302 298 302 308 309 309 308 309 309 311 311 310 307 304 299 298 296 295 294 293 293 293 292 292 292 292 292 292 292
295 297 291 293 291 295 300 301 303 291 295 304 304 304 303 302 305 309 310 309 309 309 309 311 309 303 297 298 298 294 294 292 293 293 293 292 293 292 292 292 291 291 291 290
294 294 292 296 288 286 302 301 296 304 307 305 305 306 306 307 308 308 308 308 307 307 307 302 296 295 295 296 294 292 291 293 293 292 292 291 292 292 292 291 290 290 289 288
296 301 300 297 297 305 305 303 306 307 305 306 306 306 307 307 306 307 307 308 305 303 295 296 293 293 293 292 292 290 291 292 292 291 290 291 291 291 291 289 288 287 287 287
302 304 302 301 300 302 304 305 305 306 306 307 308 308 309 307 308 307 307 303 300 294 294 294 292 290 290 291 291 291 292 292 291 289 289 290 289 289 289 289 288 287 285 285
304 303 299 300 302 303 304 306 307 307 308 308 308 306 304 305 305 303 296 294 294 293 292 291 290 289 290 291 291 292 291 291 289 289 289 289 288 288 288 289 288 285 286 286
304 301 301 300 304 304 304 305 306 303 302 302 301 299 298 298 295 294 293 292 290 289 290 290 290 290 290 290 291 291 291 290 289 288 288 287 287 287 288 287 287 288 287 287

GFSCGP_sfc_thetae_027.txt.gz
Theta_e
303 296 293 296 300 300 298 295 293 295 299 300 298 297 299 302 307 306 309 312 312 311 315 316 315 318 325 326 327 327 324 324 323 320 319 318 318 317 313 312 312 311 310 310
299 294 300 303 303 300 299 297 295 296 299 297 296 295 299 301 303 309 306 308 311 312 315 318 319 320 326 326 326 326 326 325 324 322 323 321 317 314 310 310 309 310 309 309
297 300 305 302 300 298 299 296 295 295 294 293 295 292 297 301 305 308 310 312 314 313 315 318 319 319 326 326 325 325 325 325 325 324 325 316 312 309 308 307 307 308 309 309
299 305 302 300 298 299 294 301 299 298 295 287 296 285 297 300 302 304 306 307 313 313 318 319 320 319 325 325 326 325 326 325 326 325 314 311 309 307 307 307 307 307 308 304
298 301 299 298 299 302 297 301 299 300 296 294 294 289 292 301 298 302 303 306 307 315 317 318 319 323 325 327 326 326 324 325 323 320 316 310 307 306 306 304 301 298 299 300
301 304 303 301 303 302 303 301 300 298 294 285 293 291 292 295 299 302 306 308 309 310 315 318 322 323 323 325 322 320 315 313 312 310 310 308 306 300 298 296 296 297 299 297
298 300 303 306 300 302 300 294 286 284 282 283 297 292 294 300 302 305 306 306 306 313 315 318 320 319 318 314 315 312 310 309 307 305 302 301 299 297 296 296 296 298 295 294
292 289 299 303 299 298 296 295 287 281 282 285 297 290 294 302 306 307 308 306 308 312 315 315 314 313 312 311 309 308 309 307 305 304 299 298 298 297 297 297 296 297 296 295
292 293 303 305 304 301 297 291 300 291 291 286 289 293 300 303 303 305 305 306 310 311 311 312 312 311 310 309 309 307 307 305 304 300 299 298 297 298 298 297 297 297 296 296
298 292 300 302 304 302 298 300 290 290 281 280 285 288 292 297 299 303 303 308 310 310 309 310 310 310 310 309 309 307 306 304 300 300 299 298 297 299 298 298 298 295 295 295
300 297 297 301 298 295 295 293 294 293 288 282 279 285 295 296 300 301 306 310 311 310 308 308 308 310 310 310 309 308 304 300 299 300 299 298 297 299 299 298 297 296 296 294
300 296 289 296 301 302 299 297 296 284 285 285 282 285 297 297 300 301 302 309 311 311 309 308 308 309 309 309 308 307 301 300 300 299 299 298 298 301 300 299 298 296 294 294
301 293 283 288 294 299 296 297 297 297 290 285 279 285 298 299 298 300 300 303 309 310 307 307 307 308 309 308 308 306 301 301 300 298 297 297 300 300 299 298 297 296 294 293
303 296 290 283 290 296 293 297 298 294 284 284 285 291 295 296 297 298 300 300 304 309 309 308 307 309 309 309 308 305 302 302 300 298 297 299 299 299 299 297 296 295 295 293
300 291 294 296 299 298 297 297 297 294 293 287 291 293 296 296 296 297 300 301 301 303 306 307 307 307 308 307 306 305 303 301 300 298 298 299 299 300 298 297 296 296 295 294
301 292 292 290 297 295 292 295 295 295 295 293 293 293 298 299 299 298 299 300 301 301 302 304 308 308 308 307 306 305 302 301 301 301 300 300 299 298 297 296 295 295 293 293
296 290 286 284 291 289 282 289 293 295 295 294 288 293 297 297 299 298 299 300 301 301 303 304 306 308 307 307 307 303 302 303 302 302 301 298 297 296 294 293 292 291 291 292
293 291 286 282 282 275 290 297 296 294 294 295 294 295 297 297 298 300 300 300 300 302 303 303 304 306 307 306 304 303 303 303 300 297 296 294 293 293 293 292 291 291 292 291
301 289 285 280 280 287 292 295 294 292 291 296 295 296 297 298 297 299 303 302 301 301 301 302 304 304 302 302 301 300 298 296 296 294 292 292 292 292 292 291 291 291 290 289
297 293 284 282 279 275 289 296 300 297 285 298 298 297 297 297 286 295 302 304 303 303 300 295 295 295 293 294 295 292 291 291 291 291 291 292 292 292 291 291 291 290 290 290
284 284 281 278 277 285 298 299 300 283 286 298 299 298 298 295 297 301 303 303 299 296 294 294 293 291 291 293 293 290 290 290 291 292 292 292 292 292 292 290 290 289 288 287
286 283 280 284 282 280 299 297 289 295 298 299 298 298 298 299 302 303 303 297 294 292 292 292 291 290 292 293 292 291 290 291 292 292 292 292 291 291 291 289 288 287 286 284
287 292 287 289 287 298 298 297 300 300 298 299 300 301 303 302 302 303 297 291 291 291 290 290 289 289 290 291 291 290 291 292 292 291 289 290 290 290 289 286 285 284 284 280
296 300 291 291 296 297 298 302 303 303 302 302 300 299 301 300 298 292 292 292 291 290 290 291 289 288 289 291 291 290 290 290 289 288 288 288 287 287 286 286 285 283 279 278
296 297 295 293 296 301 301 302 302 300 301 297 296 295 294 293 292 291 290 289 288 289 289 289 289 289 289 289 289 289 289 289 287 287 286 285 282 284 284 285 284 283 283 283
298 295 288 286 300 297 297 299 300 297 296 297 295 293 294 294 291 290 288 288 289 288 289 289 287 288 288 288 288 288 288 287 285 285 284 282 280 281 283 283 283 286 286 286

GFSCGP_sfc_thetae_030.txt.gz
Theta_e
302 294 292 295 297 299 298 295 293 296 297 298 297 295 304 306 307 307 305 306 308 313 317 320 326 326 323 324 323 324 322 321 320 318 316 316 316 315 315 313 311 309 308 309
296 293 298 301 302 299 297 294 293 296 298 298 295 294 299 301 305 307 307 308 308 309 311 315 321 322 322 322 324 323 323 321 320 319 318 319 316 312 310 308 308 307 307 307
294 298 303 301 298 297 296 294 294 294 294 293 293 292 294 299 305 309 310 311 311 311 311 312 316 320 321 321 323 323 323 322 320 320 320 315 310 308 306 305 305 306 307 307
296 301 301 299 297 298 292 298 297 296 292 285 292 285 293 297 299 306 306 306 310 312 313 316 316 320 321 323 324 324 324 323 322 320 318 314 311 307 305 304 304 305 306 301
295 298 297 296 297 300 295 299 297 297 293 290 291 286 290 296 295 301 303 305 307 311 314 315 319 322 323 323 323 323 323 323 323 322 315 311 307 306 306 304 302 298 297 298
298 302 301 300 302 301 301 298 297 296 293 284 291 288 288 293 297 297 302 305 307 309 313 315 321 324 323 323 323 323 322 321 319 321 312 310 305 303 301 296 294 295 296 297
296 298 300 304 297 300 298 292 284 283 282 282 294 289 290 298 300 301 302 302 305 311 313 316 319 321 322 322 322 322 316 308 308 309 306 305 301 300 297 296 295 295 297 296
289 288 298 302 299 294 294 292 284 280 279 284 294 288 293 300 303 304 304 304 307 310 315 317 318 319 319 319 316 313 309 303 302 302 300 299 298 297 297 296 298 297 296 295
290 291 301 302 302 300 295 289 295 288 288 285 288 291 297 300 300 302 302 304 306 309 313 313 312 313 310 308 308 309 307 304 301 300 300 300 299 298 298 297 297 297 296 296
297 289 298 301 302 301 297 298 289 288 281 281 284 286 289 296 298 300 301 301 307 309 310 311 311 310 310 308 307 306 305 304 301 300 299 299 299 299 298 298 297 297 296 296
299 293 294 299 296 295 294 292 292 291 286 281 279 284 292 296 299 301 301 303 308 309 311 311 311 311 310 309 307 306 303 300 300 299 297 298 298 298 299 299 297 297 296 296
300 295 286 294 300 301 296 295 294 283 284 283 281 285 296 296 299 302 303 306 310 310 311 311 311 310 309 308 307 306 303 300 299 299 298 297 298 300 299 298 297 296 295 295
299 291 283 287 292 296 294 296 295 293 287 284 279 284 297 296 296 299 301 305 310 309 307 308 308 308 308 308 308 306 303 300 300 300 298 297 298 299 298 298 296 295 293 293
301 293 288 283 287 292 291 295 296 293 282 284 284 289 295 295 295 296 298 300 307 309 307 306 307 308 309 309 308 305 301 301 301 299 297 297 299 299 296 297 294 294 293 294
297 290 291 292 295 296 293 294 295 292 291 286 290 290 294 294 294 296 297 298 302 305 305 304 304 305 306 306 305 302 301 302 300 298 297 298 299 298 297 294 293 294 293 293
298 290 290 288 293 292 290 292 293 293 293 293 292 291 294 295 296 297 297 298 298 299 301 303 305 305 306 306 305 304 301 301 300 299 298 299 299 298 296 295 293 291 292 292
294 288 285 284 288 287 282 288 291 293 293 293 286 291 294 295 296 295 296 298 298 299 301 304 305 305 305 305 305 303 302 300 299 299 300 298 296 294 293 293 292 291 291 292
291 288 284 281 281 275 289 295 294 292 292 292 293 293 295 297 297 297 297 297 297 298 300 300 301 305 304 304 303 300 301 300 299 296 295 294 293 292 292 292 292 292 291 290
298 288 284 279 279 285 290 293 291 290 289 294 293 294 295 298 297 298 301 300 298 296 294 293 293 294 295 297 298 295 294 292 291 291 291 292 291 292 293 292 291 291 290 289
295 289 285 281 278 275 287 294 297 295 284 296 296 295 296 295 286 294 299 296 293 293 293 292 292 291 291 291 292 290 289 290 290 291 292 293 293 292 291 291 290 290 289 288
283 282 279 275 276 282 292 297 296 283 284 296 297 296 295 293 295 298 293 292 292 292 292 292 291 290 290 292 292 290 291 290 292 294 294 294 293 292 292 291 289 287 286 285
285 282 279 283 277 279 298 295 289 291 296 297 296 296 297 299 298 293 292 292 291 290 291 291 290 290 291 293 292 291 291 293 293 293 292 292 291 290 289 287 285 285 283 282
286 289 285 287 286 295 296 296 298 298 297 297 299 300 301 299 294 291 290 290 290 289 288 289 289 289 290 290 290 289 291 292 291 289 288 288 288 288 287 284 283 282 282 278
293 298 290 290 295 295 299 300 301 301 297 295 297 297 297 291 291 290 290 289 289 288 288 290 289 289 289 290 289 288 289 288 288 286 286 286 285 284 284 284 283 283 279 278
293 295 293 291 295 298 298 297 297 295 295 293 294 293 292 291 290 289 288 288 288 289 289 290 289 288 288 288 288 288 287 287 286 285 285 284 281 283 283 283 283 282 282 282
295 293 288 286 297 295 295 296 297 294 294 293 292 291 291 290 288 287 286 288 289 288 288 288 288 288 287 287 287 287 287 286 285 284 283 281 280 280 282 282 282 285 285 286

GFSCGP_sfc_thetae_036.txt.gz
Theta_e
298 292 289 291 293 295 293 291 290 291 295 295 297 296 301 306 308 309 309 311 313 313 316 316 318 318 320 322 322 321 319 317 318 316 315 313 313 314 313 314 311 312 310 307
294 290 295 297 296 296 294 291 291 294 294 294 292 293 302 303 307 309 310 309 312 315 314 316 318 318 320 322 322 320 320 317 318 319 314 315 313 312 311 309 307 309 307 305
291 293 299 297 294 293 292 290 291 291 294 291 292 289 296 300 304 306 309 310 311 313 315 316 318 319 320 322 321 322 320 318 318 317 315 310 309 307 306 304 303 304 305 304
293 297 297 294 293 294 289 295 294 293 289 284 289 282 289 295 302 302 306 305 308 310 314 317 319 319 320 321 321 322 320 318 317 317 316 312 312 307 305 303 302 303 303 300
293 294 294 292 294 296 293 296 294 293 289 287 288 285 287 293 293 301 304 306 307 309 310 314 317 320 321 320 318 320 320 319 320 318 317 314 311 309 307 302 301 297 296 296
294 298 296 295 297 297 298 294 292 291 289 282 287 285 286 290 294 299 304 306 308 308 308 312 315 318 319 316 317 319 319 320 320 318 316 314 309 305 304 301 296 295 294 294
292 294 296 299 293 296 293 289 282 281 281 281 289 286 289 294 294 297 298 303 307 308 307 307 309 314 315 316 317 319 320 320 319 318 315 312 309 308 307 302 297 295 294 293
287 285 295 298 295 292 291 289 282 279 278 282 289 285 290 295 298 299 299 299 303 304 307 308 311 313 316 317 318 319 320 321 319 318 316 313 314 309 307 302 298 297 295 296
286 287 295 298 298 295 291 287 291 285 284 282 284 289 292 295 297 299 299 299 298 302 306 309 312 314 316 317 318 319 320 321 318 318 314 310 309 307 305 301 300 297 296 296
293 286 293 296 298 297 293 295 286 285 280 279 282 283 285 292 293 296 298 299 301 302 306 309 313 316 317 317 318 318 320 317 313 310 308 306 305 306 304 301 298 296 295 296
293 289 288 295 292 291 291 289 288 288 284 280 277 283 290 292 295 295 295 299 300 304 307 310 313 316 317 317 316 315 312 307 302 302 301 300 301 303 303 301 298 297 296 297
295 290 283 290 295 296 293 291 290 282 282 281 280 282 293 293 293 294 297 298 300 304 307 309 310 311 311 312 310 310 306 303 301 302 301 301 301 301 300 298 296 296 296 297
296 288 282 286 290 292 291 292 292 289 284 282 278 283 293 293 294 294 295 297 300 305 307 307 308 308 309 308 307 307 304 301 300 301 302 302 298 298 296 295 296 296 295 294
298 290 287 283 287 290 287 291 291 289 282 283 282 286 291 293 293 295 295 294 296 303 306 306 306 306 306 307 307 304 302 300 300 300 299 296 298 298 297 296 295 295 295 293
295 287 288 289 290 291 290 291 290 289 288 285 288 287 292 293 293 293 293 293 296 302 304 304 305 305 306 306 305 304 302 300 301 299 297 296 298 297 295 295 295 294 294 293
293 288 288 286 289 289 288 290 289 290 289 289 289 288 293 292 292 293 293 296 297 299 301 302 302 303 305 305 304 302 300 299 300 298 297 297 296 295 295 295 293 292 293 293
290 287 285 283 285 286 282 286 289 289 290 291 286 291 292 291 292 292 294 296 295 295 295 295 297 299 300 301 302 299 298 298 297 297 297 295 294 293 292 292 293 293 293 293
287 286 284 280 280 275 288 291 291 289 289 290 289 289 292 292 292 294 294 293 293 292 291 290 291 292 293 295 295 296 296 294 292 291 292 293 294 294 294 293 292 292 292 292
292 286 282 281 279 283 287 289 289 288 287 291 289 292 293 294 294 293 291 291 290 289 289 288 289 289 289 289 290 290 290 291 291 292 293 294 294 293 293 292 292 292 292 291
290 287 285 278 277 276 286 291 293 292 283 292 293 292 293 292 283 290 290 290 289 289 289 288 288 288 288 288 290 290 290 290 291 292 293 294 294 293 292 291 291 291 291 290
283 282 281 275 276 282 290 292 293 283 285 293 294 293 293 290 290 290 290 288 289 289 289 290 289 288 288 290 291 290 291 291 292 293 294 294 294 293 293 292 290 288 287 285
288 283 279 278 276 280 292 292 287 290 291 293 294 294 293 290 289 289 289 288 288 287 288 289 288 288 289 290 291 289 290 291 293 293 293 292 291 289 288 286 285 284 283 282
287 289 286 287 286 293 293 292 294 294 294 294 294 295 294 290 289 289 287 286 286 285 285 287 287 287 288 288 289 287 288 289 287 286 285 285 285 285 284 283 283 282 281 279
290 292 287 288 291 292 294 295 295 295 294 296 296 295 292 289 289 287 286 285 285 285 285 287 287 286 286 287 288 287 287 285 284 284 283 283 283 283 282 283 282 281 279 279
291 292 289 288 292 293 295 294 293 292 293 292 292 291 290 289 287 287 285 285 286 286 287 288 287 286 285 286 285 285 284 284 283 283 283 283 281 281 282 282 282 282 282 282
293 292 289 289 294 294 294 293 293 292 291 291 290 289 289 289 287 287 285 286 287 286 287 286 285 285 284 283 282 282 283 283 282 282 282 280 280 279 281 280 281 284 285 286

GFSCGP_sfc_thetae_042.txt.gz
Theta_e
308 303 299 300 301 302 301 299 298 301 304 303 303 304 307 314 315 314 314 316 317 317 321 325 328 330 329 329 328 328 329 331 332 332 329 325 323 327 332 334 335 332 331 329
304 300 303 304 303 302 301 299 298 301 303 302 302 301 306 312 314 315 315 316 317 318 321 321 325 327 328 328 330 330 329 330 332 333 332 327 328 328 330 333 334 333 332 328
301 302 305 303 302 300 301 299 298 298 302 302 300 299 302 309 315 317 318 318 319 319 320 321 321 325 327 327 328 329 330 332 333 333 332 328 331 331 330 330 329 330 329 326
303 305 302 302 300 302 297 302 301 300 299 294 300 292 300 305 308 313 315 318 318 319 322 323 323 323 325 327 329 329 331 333 334 334 332 328 325 324 327 328 327 326 326 325
300 302 302 300 301 303 299 303 301 301 299 298 297 295 299 302 302 307 313 316 319 319 321 322 324 325 326 327 328 330 331 333 333 333 333 330 329 328 330 328 325 324 323 321
303 306 305 303 304 304 304 302 301 302 300 292 296 296 297 300 301 304 309 314 317 320 321 323 325 327 328 329 330 330 330 330 333 333 332 331 331 330 326 324 321 320 319 318
301 302 305 305 302 304 303 299 293 290 291 290 298 295 298 303 305 307 308 310 315 319 321 323 323 325 328 329 330 331 330 328 330 329 327 328 329 330 324 324 321 317 316 313
294 292 300 305 303 300 301 300 293 284 287 291 296 292 299 305 307 309 311 312 313 314 320 322 324 325 327 329 332 332 329 327 329 329 323 327 327 326 325 326 322 318 312 312
295 294 303 304 305 304 300 296 301 294 295 292 294 297 302 304 304 306 308 311 312 313 315 318 322 325 326 329 331 333 332 329 331 329 325 325 326 324 323 324 322 316 312 309
300 294 301 303 306 305 302 304 295 297 286 285 292 293 296 299 301 304 305 308 312 314 314 316 318 321 324 327 330 333 333 332 332 330 327 325 326 325 324 323 320 313 311 309
302 299 297 302 300 299 300 298 299 298 296 289 287 292 302 302 303 305 306 308 311 314 316 317 319 322 324 325 328 329 330 330 331 331 330 325 325 325 324 323 320 316 313 308
303 300 295 297 302 304 302 300 300 294 291 295 293 293 304 306 306 306 307 307 311 314 315 319 321 323 324 325 326 327 328 328 330 331 331 328 325 322 320 317 316 313 309 304
303 298 292 293 297 301 299 300 300 300 298 294 292 294 304 305 306 308 308 308 308 311 315 318 321 323 325 326 327 327 328 328 328 327 325 324 320 316 314 312 310 307 305 306
304 300 296 291 294 298 296 298 300 299 295 295 295 297 302 304 305 307 308 309 308 309 310 317 320 322 323 324 325 326 325 324 320 320 319 318 317 317 317 314 311 308 306 304
304 296 298 298 298 298 297 297 299 297 299 295 297 297 301 303 305 306 307 306 307 309 312 316 319 321 322 322 322 322 320 319 319 317 316 315 314 313 311 309 309 307 308 303
304 296 299 295 298 298 296 298 298 299 299 299 299 298 305 307 307 306 305 306 308 309 311 313 316 318 318 318 318 316 316 315 315 313 311 310 308 306 305 303 302 298 297 297
301 298 295 291 296 296 291 297 298 300 301 301 296 301 305 305 305 306 306 307 307 307 308 309 310 311 312 314 315 313 312 312 311 309 307 305 304 301 300 298 297 296 298 296
300 299 298 293 291 286 297 302 303 300 301 303 302 304 305 305 306 305 308 307 305 305 304 305 307 308 309 310 310 310 309 308 306 305 303 303 302 300 300 299 299 297 298 297
304 300 294 292 290 294 295 297 298 298 299 304 303 304 304 303 303 301 303 306 304 304 304 304 305 306 306 306 306 306 305 304 303 302 302 302 302 301 301 300 300 301 301 300
299 300 299 291 289 287 297 303 304 303 295 305 305 304 303 303 299 303 301 301 301 302 302 302 303 304 304 304 305 304 303 302 301 301 301 302 302 301 300 300 297 294 294 294
293 294 293 293 293 296 301 302 303 294 298 305 306 305 304 302 305 305 302 301 301 301 300 302 303 302 302 303 303 302 301 300 300 301 300 299 297 294 296 297 297 297 297 296
293 293 292 295 292 290 302 300 299 306 306 307 307 307 306 306 303 301 300 299 299 299 299 301 301 301 302 302 301 298 296 298 298 296 294 295 294 293 293 294 294 294 294 293
293 299 298 298 298 307 304 307 308 310 308 306 307 308 308 302 300 300 299 299 299 299 300 300 299 299 300 300 300 296 295 295 294 293 293 293 293 293 293 293 293 293 292 291
299 299 298 298 303 304 306 308 307 307 307 307 308 308 306 302 301 299 299 298 298 299 298 298 297 295 294 295 295 294 294 294 293 292 292 292 290 291 290 290 289 288 288 287
302 299 299 301 304 302 305 307 308 306 305 305 307 307 305 303 300 299 298 297 298 298 297 296 295 293 292 292 292 292 292 293 291 290 289 288 287 286 287 286 286 285 286 283
301 300 299 300 307 306 308 309 309 306 304 305 305 304 305 303 300 299 297 298 297 295 295 294 293 291 289 289 288 288 289 290 288 286 285 284 285 286 285 285 285 281 281 280

GFSCGP_sfc_thetae_045.txt.gz
Theta_e
309 304 301 303 304 303 302 300 299 302 306 303 303 304 306 315 315 312 314 314 316 317 318 323 322 323 322 324 325 326 326 327 330 329 326 323 321 323 325 329 332 334 334 332
306 301 306 305 304 302 302 299 299 302 304 303 303 302 306 312 314 314 313 315 314 316 321 323 325 325 326 326 326 326 326 327 331 331 330 326 325 323 326 329 333 334 334 333
302 304 307 303 302 301 301 300 299 299 304 305 303 301 303 309 314 315 315 315 317 316 317 320 323 325 326 325 326 327 328 329 330 331 331 329 326 326 324 327 329 332 333 333
303 307 304 303 302 303 298 304 302 301 300 295 303 292 299 306 308 313 314 315 316 318 319 319 321 325 326 328 330 330 330 330 330 332 331 328 323 323 327 329 330 331 333 332
301 303 303 301 302 304 301 304 303 302 301 300 299 295 300 304 303 308 313 315 316 318 319 320 320 321 326 329 329 331 331 330 332 333 332 331 327 327 329 330 330 331 331 330
304 309 306 305 306 305 306 303 303 303 301 293 298 297 295 300 302 305 311 315 317 317 319 321 323 323 323 326 330 333 329 329 331 332 332 332 330 329 330 331 328 327 327 327
301 303 306 307 302 306 304 301 293 291 292 291 299 296 298 303 306 307 308 311 316 319 319 320 321 323 325 325 328 330 329 327 331 333 331 332 332 332 326 328 327 325 324 323
296 294 302 306 303 301 302 301 295 285 289 292 299 293 298 307 308 309 311 312 313 316 319 320 321 323 325 327 328 330 328 328 329 331 330 331 332 331 329 326 325 323 322 321
297 296 305 305 306 305 302 298 304 296 298 293 296 299 303 305 305 307 308 311 314 315 317 320 322 323 325 327 331 334 331 330 330 332 327 329 331 329 329 327 327 323 321 320
302 295 302 304 307 307 304 306 296 298 288 287 293 295 296 301 302 304 306 308 311 315 316 318 320 323 326 328 333 338 335 333 331 330 332 330 329 328 328 327 325 322 321 316
304 300 299 304 301 300 301 300 301 300 297 290 289 294 303 302 304 305 307 308 310 312 317 318 320 321 324 327 329 332 334 334 332 332 331 331 328 328 327 325 324 322 318 313
304 301 296 299 305 306 304 301 301 295 293 296 295 295 307 306 307 307 308 309 311 313 315 319 321 323 324 325 327 330 332 333 333 332 330 330 328 328 324 323 321 320 317 316
304 298 294 295 300 304 301 303 303 302 301 295 293 295 306 307 306 308 308 310 311 312 314 318 322 323 325 326 327 329 330 330 331 332 331 328 325 322 320 318 316 313 313 310
305 300 297 293 297 300 297 299 301 300 296 295 296 298 302 305 306 307 309 311 311 312 312 316 320 323 325 327 327 328 329 331 330 330 328 326 320 318 317 314 312 309 307 306
304 297 299 299 301 300 299 299 300 298 299 295 298 298 302 305 306 307 310 309 309 310 311 314 319 322 324 326 327 327 326 325 325 324 323 320 319 319 317 316 313 311 308 305
305 297 299 296 300 300 297 299 299 299 300 299 300 299 306 307 308 307 308 308 309 311 313 316 320 322 323 323 324 322 321 321 321 319 316 316 314 312 311 310 308 307 306 303
301 300 296 293 298 298 293 297 298 299 301 301 297 302 306 305 306 307 308 309 310 312 314 316 318 320 321 320 320 318 317 317 315 313 311 309 308 306 304 303 302 301 301 301
301 299 298 294 293 287 297 304 303 300 301 303 303 304 306 306 308 309 310 310 311 311 312 313 314 315 316 317 316 315 314 312 311 309 307 307 305 303 303 303 302 302 301 301
303 302 297 293 292 295 297 301 301 299 299 304 304 305 307 308 307 307 309 312 311 311 311 311 312 312 312 312 312 311 309 309 307 306 305 305 305 304 303 302 301 302 301 301
303 303 299 295 290 287 297 303 306 305 296 305 306 306 306 306 301 305 309 310 310 309 309 309 310 310 310 310 310 308 307 306 304 304 304 305 304 303 302 301 300 300 299 299
293 295 294 295 293 296 303 304 307 295 297 307 307 307 306 304 307 310 309 307 308 307 307 308 308 308 308 309 308 306 305 303 304 304 303 302 302 301 301 300 299 298 297 297
294 293 294 296 293 290 305 304 299 306 311 310 310 309 308 309 309 308 306 306 305 305 305 307 306 306 307 308 306 304 302 303 302 301 300 299 297 295 296 296 295 295 295 295
293 299 297 298 299 308 307 308 310 311 310 312 311 310 310 310 307 306 305 305 305 305 305 306 305 304 305 305 304 301 301 301 300 298 295 295 295 295 295 295 294 294 293 291
300 304 300 301 305 306 308 308 310 312 312 313 313 311 311 310 307 305 305 304 304 305 305 305 304 302 302 303 302 300 300 298 297 295 294 294 293 292 292 292 290 289 289 288
302 303 301 301 304 306 308 309 311 312 312 311 311 311 311 310 306 305 304 304 304 304 304 303 301 300 299 299 298 297 297 296 294 293 292 291 289 289 289 288 287 286 285 283
303 302 301 299 305 307 308 311 312 312 311 310 309 309 311 309 306 306 304 304 304 303 302 300 299 297 296 295 294 295 295 294 292 289 288 288 288 288 287 287 285 281 282 281

GFSCGP_sfc_thetae_048.txt.gz
Theta_e
306 301 298 301 303 302 300 298 299 302 306 305 302 303 306 308 310 311 311 313 313 315 318 319 318 319 318 315 316 315 313 316 321 321 319 321 319 322 323 324 325 331 330 331
302 299 305 306 305 302 300 298 298 302 306 303 301 301 307 308 311 311 311 313 312 315 318 318 316 318 318 317 317 319 320 320 323 323 324 324 322 321 323 324 327 331 330 330
299 303 308 304 302 299 299 298 299 299 303 305 302 298 303 310 311 312 313 314 315 314 316 317 317 318 319 320 320 321 322 322 324 327 327 326 324 321 319 322 328 330 331 330
302 306 304 303 299 301 296 303 302 300 298 293 302 291 300 303 306 310 311 313 314 315 318 319 320 320 320 322 324 325 324 324 324 328 327 326 321 318 319 321 326 329 330 329
300 302 302 301 301 303 299 305 303 301 298 298 298 295 298 303 302 307 311 313 315 316 317 319 320 323 323 325 325 325 325 325 327 327 328 325 324 321 324 322 326 327 328 329
302 307 305 304 305 305 306 303 302 302 299 291 297 296 295 299 301 305 311 314 314 316 317 318 320 323 324 326 327 326 326 326 328 328 327 326 324 324 323 325 325 326 326 327
300 301 306 307 302 305 303 299 292 290 290 290 299 295 298 303 305 307 310 312 315 316 316 318 318 318 322 324 325 327 327 326 327 329 328 327 327 328 326 325 324 322 322 321
293 292 301 306 302 300 300 299 294 286 286 291 299 293 297 306 308 309 309 311 315 316 317 318 319 320 319 322 326 327 327 326 327 328 329 328 328 328 327 326 325 322 321 322
294 295 304 305 305 304 300 296 303 295 296 292 295 298 304 306 305 306 308 310 312 313 317 318 319 322 322 322 323 326 326 326 326 328 329 327 325 327 327 326 325 323 322 321
299 295 302 304 305 305 302 305 295 297 288 286 292 293 294 300 302 304 305 309 312 315 316 317 319 321 322 324 325 326 326 326 327 328 330 328 323 324 328 328 325 324 322 320
301 298 298 302 299 298 299 298 300 300 296 290 288 292 302 303 305 305 308 308 313 315 316 317 318 321 322 324 325 327 328 328 328 330 330 328 327 326 327 325 323 324 320 314
302 301 294 297 303 305 303 300 301 294 292 297 296 293 307 306 307 308 308 310 312 314 315 318 320 321 321 322 326 330 331 331 330 329 329 329 328 327 323 322 321 319 313 311
302 297 291 294 300 303 299 302 301 302 300 295 290 293 306 307 306 308 309 309 310 312 313 316 320 321 322 324 324 327 331 331 329 331 329 328 326 323 321 318 315 315 313 312
305 299 295 291 296 300 297 300 302 300 294 294 295 297 302 304 305 306 308 309 309 311 312 313 318 321 323 325 326 327 328 330 329 329 327 322 319 317 314 312 309 308 306 304
304 297 298 298 299 300 299 299 299 297 298 295 297 297 301 304 306 307 310 310 309 309 310 312 315 320 323 325 326 327 326 326 326 325 321 318 317 317 314 312 311 308 307 305
303 296 298 295 299 299 297 300 299 299 299 299 299 298 305 306 307 307 307 308 308 309 309 313 315 320 323 324 325 324 323 322 323 319 317 317 316 315 314 312 309 307 304 301
300 299 295 290 297 296 291 298 299 299 300 300 296 302 305 305 306 306 307 308 308 309 312 315 317 321 323 323 322 321 320 320 317 315 313 311 309 306 305 303 302 301 299 299
300 298 297 289 292 285 297 304 302 300 300 302 302 303 305 305 307 308 310 311 310 312 313 316 319 320 320 320 319 318 316 314 311 309 308 306 305 302 302 301 300 299 299 298
302 300 295 289 288 294 297 300 299 298 297 303 302 303 305 306 309 309 311 313 313 313 315 315 317 318 317 315 315 313 311 309 307 306 305 305 304 303 302 300 300 300 300 299
300 302 296 294 286 284 297 302 305 304 293 304 304 305 305 306 300 304 309 312 312 313 313 312 313 313 312 311 311 308 307 306 305 305 305 305 304 303 301 300 300 299 298 298
293 293 291 291 290 295 301 304 305 292 295 307 308 307 308 305 307 310 310 311 311 311 310 311 310 309 309 309 309 306 305 303 305 305 304 303 302 301 300 299 299 298 296 296
291 290 290 293 290 288 306 303 297 303 309 311 310 311 313 312 310 309 309 309 308 307 308 308 307 307 308 308 307 304 302 303 303 302 300 300 300 298 297 295 294 293 293 291
291 294 293 296 296 306 307 305 308 311 312 312 311 312 312 311 309 308 307 307 306 306 306 307 306 306 306 307 306 302 301 302 300 300 297 294 294 295 295 293 292 291 290 287
298 303 297 296 300 304 307 308 310 310 310 312 313 313 314 310 309 307 307 306 305 306 305 306 305 304 303 304 304 302 301 301 298 294 293 293 292 291 291 290 289 288 285 284
298 300 299 299 302 303 304 305 308 311 312 312 311 311 310 311 309 307 306 305 305 305 305 305 303 302 302 302 300 300 299 297 295 294 292 290 289 288 287 284 285 282 281 281
301 299 297 298 304 304 306 308 311 309 308 310 311 310 310 311 309 308 306 306 305 305 304 303 302 301 300 298 297 296 297 295 292 289 288 287 286 286 286 284 282 283 281 281

GFSCGP_sfc_thetae_051.txt.gz
Theta_e
300 294 291 294 297 298 297 295 292 296 302 300 299 301 301 306 308 306 309 311 311 310 314 314 313 312 311 312 311 312 312 313 314 314 313 312 312 316 316 319 320 323 326 327
297 293 299 302 301 301 299 294 292 301 304 300 298 299 302 306 307 307 309 308 309 311 312 313 313 312 312 312 312 311 312 312 312 317 312 311 315 317 320 320 319 323 327 327
295 298 303 301 300 298 296 294 293 296 299 299 295 295 300 305 310 311 311 311 312 312 311 312 312 312 311 311 311 311 311 312 314 319 317 315 318 317 314 316 318 322 328 326
298 302 301 301 299 299 291 298 300 299 294 287 294 284 298 304 305 309 309 309 310 313 313 313 313 312 312 311 314 314 312 312 316 320 318 316 317 316 316 314 317 325 326 325
296 299 299 298 299 301 295 302 301 299 294 291 292 288 292 303 301 303 307 309 309 314 313 313 312 313 314 314 314 316 316 315 318 320 320 320 320 319 316 316 317 324 324 324
298 303 301 300 303 302 303 301 299 297 293 285 292 291 291 296 299 304 307 309 310 311 315 315 315 315 316 317 316 317 317 318 319 320 321 323 323 321 317 316 318 323 323 324
297 298 302 303 298 301 298 293 286 285 283 283 296 293 292 299 302 305 306 308 310 312 313 315 316 316 317 317 318 319 320 319 320 320 320 324 323 322 320 319 320 319 320 319
289 288 298 302 300 296 296 294 286 281 281 287 296 290 293 302 304 304 306 310 311 312 314 316 317 318 319 319 320 320 320 320 321 321 322 324 324 323 323 321 319 320 321 320
290 291 300 301 303 300 296 292 298 293 293 287 291 295 300 302 300 301 302 303 308 310 312 314 317 318 319 320 320 321 321 321 322 323 324 323 323 323 323 321 321 320 317 316
296 290 299 301 302 301 298 300 290 293 284 283 289 290 291 296 299 299 298 300 304 306 311 314 315 316 318 320 322 322 323 323 324 323 325 325 324 321 322 322 319 319 319 316
298 294 294 299 297 296 295 294 296 295 291 283 281 287 298 298 302 300 299 302 304 306 307 309 313 316 317 317 320 323 323 323 324 323 324 325 322 320 322 322 321 320 317 314
299 296 289 292 301 303 299 296 296 288 288 290 284 287 302 300 302 302 302 303 303 307 309 310 311 312 314 318 320 321 323 324 324 324 324 324 323 322 321 320 320 319 316 312
299 292 287 289 295 300 296 298 299 298 296 289 283 288 304 303 302 301 301 302 304 304 306 310 312 313 315 315 320 320 322 322 322 325 326 324 323 323 320 319 317 315 311 310
301 295 290 285 291 298 295 297 298 296 287 289 289 293 299 302 300 300 300 302 302 304 305 310 311 313 315 317 320 322 324 324 325 326 324 319 318 316 315 313 311 310 311 307
299 290 294 294 296 298 298 297 297 295 296 290 294 295 299 300 299 301 304 304 303 304 305 306 311 313 315 318 320 320 321 323 324 322 318 315 314 313 312 310 308 307 306 304
299 291 294 292 296 297 294 297 297 296 297 297 297 296 303 302 303 302 304 304 303 302 303 305 308 317 319 320 319 318 318 317 318 316 315 315 314 313 311 308 307 305 302 301
297 292 290 286 294 293 287 293 296 298 299 297 291 296 301 301 301 302 302 303 303 303 304 307 310 317 318 319 318 316 315 315 314 314 314 313 310 308 308 307 304 299 296 295
296 293 290 284 289 282 293 300 300 299 299 298 296 296 299 301 301 301 302 302 303 306 308 310 316 316 317 317 316 314 312 310 308 306 306 306 303 301 301 300 298 296 295 293
300 293 287 285 285 290 294 298 298 296 294 299 297 297 298 300 301 299 304 305 306 307 309 311 313 315 313 313 312 310 308 306 305 304 303 301 300 299 298 297 295 296 295 294
299 298 290 284 282 281 291 299 303 301 290 300 300 299 299 299 291 295 303 307 308 308 308 309 310 310 310 308 309 307 304 303 302 302 301 301 301 299 298 297 296 295 297 297
290 288 286 282 281 288 298 301 304 289 290 301 303 301 301 296 298 302 304 306 307 307 307 307 307 306 305 306 305 303 302 301 302 302 302 300 299 298 298 297 296 295 294 293
288 286 283 287 284 282 300 301 294 297 302 303 303 302 304 303 303 304 305 305 305 304 305 305 304 303 303 303 303 300 299 300 300 299 298 298 298 298 297 295 293 292 290 287
288 292 288 290 288 299 300 302 305 305 305 305 304 306 306 304 303 303 303 303 303 302 302 303 302 301 302 302 302 299 298 299 298 298 297 297 295 294 292 289 288 288 287 283
293 297 291 293 296 297 299 303 305 307 304 306 306 305 307 306 305 304 302 302 301 300 300 301 301 300 299 300 300 299 298 298 297 292 290 290 289 289 287 288 286 283 280 280
292 296 295 294 297 299 301 302 305 307 307 306 307 305 304 306 304 304 302 301 300 300 300 301 300 299 298 299 298 298 298 294 291 291 289 287 286 283 282 283 281 279 280 281
295 293 291 288 300 299 300 304 307 305 305 306 306 306 306 306 303 303 302 302 301 300 300 300 299 298 296 296 295 295 294 292 289 286 285 283 282 282 281 280 279 282 281 282